<?xml version="1.0" encoding="UTF-8" standalone="no" ?>
<gpx xmlns="http://www.topografix.com/GPX/1/1" xmlns:xsi="http://www.w3.org/2001/XMLSchema-instance" xsi:schemaLocation="http://www.topografix.com/GPX/1/1 http://www.topografix.com/GPX/1/1/gpx.xsd" version="1.1" creator="VisuGPX - https://www.visugpx.com">
  <metadata>
    <name>Balade du 15/02/2017</name>
    <desc><![CDATA[ 2h30 de balade par temps doux et les premières primevères ...]]></desc>
  </metadata>
  <trk>
    <name><![CDATA[15 févr. 2017]]></name>
    <cmt><![CDATA[11:31:51]]></cmt>
    <desc><![CDATA[comment ...]]></desc>
    <trkseg>
      <trkpt lat="45.77221" lon="5.34858">
        <ele>327</ele>
        <time>2017-02-15T10:31:51Z</time>
      </trkpt>
      <trkpt lat="45.77221" lon="5.34858">
        <ele>327</ele>
        <time>2017-02-15T10:31:52Z</time>
      </trkpt>
      <trkpt lat="45.77215" lon="5.34858">
        <ele>328</ele>
        <time>2017-02-15T10:32:17Z</time>
      </trkpt>
      <trkpt lat="45.77209" lon="5.34859">
        <ele>328</ele>
        <time>2017-02-15T10:32:20Z</time>
      </trkpt>
      <trkpt lat="45.77196" lon="5.34863">
        <ele>328</ele>
        <time>2017-02-15T10:32:28Z</time>
      </trkpt>
      <trkpt lat="45.77168" lon="5.34891">
        <ele>329</ele>
        <time>2017-02-15T10:32:50Z</time>
      </trkpt>
      <trkpt lat="45.7716" lon="5.34916">
        <ele>329</ele>
        <time>2017-02-15T10:33:01Z</time>
      </trkpt>
      <trkpt lat="45.77148" lon="5.34931">
        <ele>329</ele>
        <time>2017-02-15T10:33:11Z</time>
      </trkpt>
      <trkpt lat="45.77133" lon="5.34951">
        <ele>329</ele>
        <time>2017-02-15T10:33:23Z</time>
      </trkpt>
      <trkpt lat="45.77133" lon="5.34959">
        <ele>329</ele>
        <time>2017-02-15T10:33:27Z</time>
      </trkpt>
      <trkpt lat="45.77167" lon="5.35003">
        <ele>329</ele>
        <time>2017-02-15T10:33:53Z</time>
      </trkpt>
      <trkpt lat="45.77183" lon="5.35035">
        <ele>328</ele>
        <time>2017-02-15T10:34:12Z</time>
      </trkpt>
      <trkpt lat="45.77191" lon="5.35038">
        <ele>328</ele>
        <time>2017-02-15T10:34:18Z</time>
      </trkpt>
      <trkpt lat="45.77234" lon="5.35019">
        <ele>328</ele>
        <time>2017-02-15T10:34:48Z</time>
      </trkpt>
      <trkpt lat="45.77261" lon="5.35027">
        <ele>330</ele>
        <time>2017-02-15T10:35:20Z</time>
      </trkpt>
      <trkpt lat="45.77275" lon="5.3504">
        <ele>331</ele>
        <time>2017-02-15T10:35:32Z</time>
      </trkpt>
      <trkpt lat="45.77283" lon="5.35058">
        <ele>334</ele>
        <time>2017-02-15T10:35:43Z</time>
      </trkpt>
      <trkpt lat="45.77304" lon="5.35102">
        <ele>340</ele>
        <time>2017-02-15T10:36:09Z</time>
      </trkpt>
      <trkpt lat="45.77304" lon="5.3511">
        <ele>341</ele>
        <time>2017-02-15T10:36:14Z</time>
      </trkpt>
      <trkpt lat="45.77277" lon="5.35161">
        <ele>344</ele>
        <time>2017-02-15T10:36:46Z</time>
      </trkpt>
      <trkpt lat="45.77271" lon="5.35184">
        <ele>345</ele>
        <time>2017-02-15T10:36:58Z</time>
      </trkpt>
      <trkpt lat="45.77277" lon="5.35199">
        <ele>345</ele>
        <time>2017-02-15T10:37:06Z</time>
      </trkpt>
      <trkpt lat="45.77304" lon="5.35244">
        <ele>343</ele>
        <time>2017-02-15T10:37:31Z</time>
      </trkpt>
      <trkpt lat="45.77323" lon="5.35304">
        <ele>341</ele>
        <time>2017-02-15T10:38:00Z</time>
      </trkpt>
      <trkpt lat="45.77331" lon="5.35347">
        <ele>339</ele>
        <time>2017-02-15T10:38:19Z</time>
      </trkpt>
      <trkpt lat="45.77339" lon="5.35356">
        <ele>339</ele>
        <time>2017-02-15T10:38:25Z</time>
      </trkpt>
      <trkpt lat="45.77358" lon="5.35369">
        <ele>337</ele>
        <time>2017-02-15T10:38:37Z</time>
      </trkpt>
      <trkpt lat="45.77406" lon="5.35358">
        <ele>334</ele>
        <time>2017-02-15T10:39:07Z</time>
      </trkpt>
      <trkpt lat="45.77451" lon="5.35372">
        <ele>332</ele>
        <time>2017-02-15T10:39:36Z</time>
      </trkpt>
      <trkpt lat="45.77466" lon="5.35389">
        <ele>332</ele>
        <time>2017-02-15T10:39:49Z</time>
      </trkpt>
      <trkpt lat="45.77484" lon="5.35419">
        <ele>331</ele>
        <time>2017-02-15T10:40:07Z</time>
      </trkpt>
      <trkpt lat="45.77516" lon="5.35485">
        <ele>327</ele>
        <time>2017-02-15T10:40:39Z</time>
      </trkpt>
      <trkpt lat="45.77529" lon="5.35509">
        <ele>325</ele>
        <time>2017-02-15T10:40:52Z</time>
      </trkpt>
      <trkpt lat="45.77544" lon="5.35527">
        <ele>324</ele>
        <time>2017-02-15T10:41:12Z</time>
      </trkpt>
      <trkpt lat="45.7755" lon="5.35529">
        <ele>323</ele>
        <time>2017-02-15T10:41:16Z</time>
      </trkpt>
      <trkpt lat="45.77601" lon="5.35533">
        <ele>322</ele>
        <time>2017-02-15T10:41:49Z</time>
      </trkpt>
      <trkpt lat="45.77624" lon="5.35531">
        <ele>322</ele>
        <time>2017-02-15T10:42:02Z</time>
      </trkpt>
      <trkpt lat="45.77645" lon="5.35517">
        <ele>321</ele>
        <time>2017-02-15T10:42:13Z</time>
      </trkpt>
      <trkpt lat="45.7766" lon="5.35489">
        <ele>320</ele>
        <time>2017-02-15T10:42:26Z</time>
      </trkpt>
      <trkpt lat="45.77668" lon="5.35478">
        <ele>319</ele>
        <time>2017-02-15T10:42:32Z</time>
      </trkpt>
      <trkpt lat="45.77699" lon="5.35453">
        <ele>317</ele>
        <time>2017-02-15T10:42:53Z</time>
      </trkpt>
      <trkpt lat="45.77732" lon="5.35437">
        <ele>316</ele>
        <time>2017-02-15T10:43:14Z</time>
      </trkpt>
      <trkpt lat="45.77778" lon="5.35418">
        <ele>316</ele>
        <time>2017-02-15T10:43:44Z</time>
      </trkpt>
      <trkpt lat="45.77829" lon="5.35402">
        <ele>317</ele>
        <time>2017-02-15T10:44:17Z</time>
      </trkpt>
      <trkpt lat="45.77881" lon="5.35388">
        <ele>321</ele>
        <time>2017-02-15T10:44:49Z</time>
      </trkpt>
      <trkpt lat="45.77932" lon="5.35387">
        <ele>322</ele>
        <time>2017-02-15T10:45:21Z</time>
      </trkpt>
      <trkpt lat="45.77937" lon="5.35386">
        <ele>322</ele>
        <time>2017-02-15T10:45:25Z</time>
      </trkpt>
      <trkpt lat="45.77944" lon="5.35378">
        <ele>321</ele>
        <time>2017-02-15T10:45:32Z</time>
      </trkpt>
      <trkpt lat="45.77958" lon="5.35369">
        <ele>319</ele>
        <time>2017-02-15T10:45:40Z</time>
      </trkpt>
      <trkpt lat="45.77969" lon="5.35359">
        <ele>316</ele>
        <time>2017-02-15T10:45:47Z</time>
      </trkpt>
      <trkpt lat="45.77974" lon="5.35364">
        <ele>315</ele>
        <time>2017-02-15T10:45:52Z</time>
      </trkpt>
      <trkpt lat="45.77976" lon="5.35375">
        <ele>313</ele>
        <time>2017-02-15T10:45:58Z</time>
      </trkpt>
      <trkpt lat="45.77987" lon="5.3541">
        <ele>309</ele>
        <time>2017-02-15T10:46:15Z</time>
      </trkpt>
      <trkpt lat="45.77995" lon="5.35411">
        <ele>309</ele>
        <time>2017-02-15T10:46:21Z</time>
      </trkpt>
      <trkpt lat="45.78033" lon="5.35379">
        <ele>310</ele>
        <time>2017-02-15T10:46:43Z</time>
      </trkpt>
      <trkpt lat="45.78038" lon="5.35371">
        <ele>310</ele>
        <time>2017-02-15T10:46:46Z</time>
      </trkpt>
      <trkpt lat="45.78033" lon="5.35356">
        <ele>311</ele>
        <time>2017-02-15T10:46:52Z</time>
      </trkpt>
      <trkpt lat="45.78004" lon="5.35314">
        <ele>309</ele>
        <time>2017-02-15T10:47:15Z</time>
      </trkpt>
      <trkpt lat="45.78002" lon="5.35289">
        <ele>309</ele>
        <time>2017-02-15T10:47:25Z</time>
      </trkpt>
      <trkpt lat="45.78001" lon="5.35216">
        <ele>308</ele>
        <time>2017-02-15T10:47:55Z</time>
      </trkpt>
      <trkpt lat="45.78007" lon="5.35141">
        <ele>310</ele>
        <time>2017-02-15T10:48:26Z</time>
      </trkpt>
      <trkpt lat="45.7801" lon="5.35094">
        <ele>312</ele>
        <time>2017-02-15T10:48:48Z</time>
      </trkpt>
      <trkpt lat="45.78008" lon="5.35021">
        <ele>314</ele>
        <time>2017-02-15T10:49:18Z</time>
      </trkpt>
      <trkpt lat="45.78002" lon="5.34993">
        <ele>316</ele>
        <time>2017-02-15T10:49:38Z</time>
      </trkpt>
      <trkpt lat="45.78003" lon="5.34956">
        <ele>316</ele>
        <time>2017-02-15T10:49:49Z</time>
      </trkpt>
      <trkpt lat="45.78007" lon="5.34922">
        <ele>316</ele>
        <time>2017-02-15T10:49:55Z</time>
      </trkpt>
      <trkpt lat="45.78016" lon="5.34869">
        <ele>317</ele>
        <time>2017-02-15T10:50:05Z</time>
      </trkpt>
      <trkpt lat="45.78005" lon="5.3472">
        <ele>317</ele>
        <time>2017-02-15T10:50:37Z</time>
      </trkpt>
      <trkpt lat="45.78011" lon="5.34703">
        <ele>317</ele>
        <time>2017-02-15T10:50:43Z</time>
      </trkpt>
      <trkpt lat="45.78047" lon="5.34657">
        <ele>317</ele>
        <time>2017-02-15T10:50:57Z</time>
      </trkpt>
      <trkpt lat="45.78102" lon="5.34603">
        <ele>317</ele>
        <time>2017-02-15T10:51:18Z</time>
      </trkpt>
      <trkpt lat="45.78133" lon="5.34593">
        <ele>317</ele>
        <time>2017-02-15T10:51:35Z</time>
      </trkpt>
      <trkpt lat="45.78183" lon="5.34603">
        <ele>318</ele>
        <time>2017-02-15T10:52:06Z</time>
      </trkpt>
      <trkpt lat="45.78209" lon="5.34623">
        <ele>319</ele>
        <time>2017-02-15T10:52:23Z</time>
      </trkpt>
      <trkpt lat="45.78228" lon="5.34639">
        <ele>321</ele>
        <time>2017-02-15T10:52:39Z</time>
      </trkpt>
      <trkpt lat="45.78251" lon="5.34661">
        <ele>322</ele>
        <time>2017-02-15T10:52:58Z</time>
      </trkpt>
      <trkpt lat="45.78277" lon="5.34705">
        <ele>323</ele>
        <time>2017-02-15T10:53:24Z</time>
      </trkpt>
      <trkpt lat="45.7828" lon="5.34717">
        <ele>323</ele>
        <time>2017-02-15T10:53:30Z</time>
      </trkpt>
      <trkpt lat="45.78289" lon="5.34744">
        <ele>324</ele>
        <time>2017-02-15T10:53:45Z</time>
      </trkpt>
      <trkpt lat="45.78312" lon="5.34782">
        <ele>325</ele>
        <time>2017-02-15T10:54:09Z</time>
      </trkpt>
      <trkpt lat="45.78342" lon="5.3483">
        <ele>327</ele>
        <time>2017-02-15T10:54:37Z</time>
      </trkpt>
      <trkpt lat="45.78369" lon="5.34884">
        <ele>327</ele>
        <time>2017-02-15T10:55:07Z</time>
      </trkpt>
      <trkpt lat="45.784" lon="5.34934">
        <ele>326</ele>
        <time>2017-02-15T10:55:38Z</time>
      </trkpt>
      <trkpt lat="45.78431" lon="5.34988">
        <ele>325</ele>
        <time>2017-02-15T10:56:08Z</time>
      </trkpt>
      <trkpt lat="45.78447" lon="5.35018">
        <ele>326</ele>
        <time>2017-02-15T10:56:24Z</time>
      </trkpt>
      <trkpt lat="45.78472" lon="5.35058">
        <ele>326</ele>
        <time>2017-02-15T10:56:47Z</time>
      </trkpt>
      <trkpt lat="45.785" lon="5.35105">
        <ele>327</ele>
        <time>2017-02-15T10:57:12Z</time>
      </trkpt>
      <trkpt lat="45.78532" lon="5.35159">
        <ele>327</ele>
        <time>2017-02-15T10:57:42Z</time>
      </trkpt>
      <trkpt lat="45.78557" lon="5.35205">
        <ele>327</ele>
        <time>2017-02-15T10:58:10Z</time>
      </trkpt>
      <trkpt lat="45.78577" lon="5.35242">
        <ele>329</ele>
        <time>2017-02-15T10:58:33Z</time>
      </trkpt>
      <trkpt lat="45.78601" lon="5.35311">
        <ele>328</ele>
        <time>2017-02-15T10:59:06Z</time>
      </trkpt>
      <trkpt lat="45.78612" lon="5.35339">
        <ele>326</ele>
        <time>2017-02-15T10:59:21Z</time>
      </trkpt>
      <trkpt lat="45.7862" lon="5.35342">
        <ele>325</ele>
        <time>2017-02-15T10:59:27Z</time>
      </trkpt>
      <trkpt lat="45.78624" lon="5.35336">
        <ele>325</ele>
        <time>2017-02-15T10:59:31Z</time>
      </trkpt>
      <trkpt lat="45.78645" lon="5.35297">
        <ele>323</ele>
        <time>2017-02-15T10:59:43Z</time>
      </trkpt>
      <trkpt lat="45.78667" lon="5.35241">
        <ele>320</ele>
        <time>2017-02-15T10:59:55Z</time>
      </trkpt>
      <trkpt lat="45.78697" lon="5.35167">
        <ele>321</ele>
        <time>2017-02-15T11:00:13Z</time>
      </trkpt>
      <trkpt lat="45.78708" lon="5.35147">
        <ele>322</ele>
        <time>2017-02-15T11:00:18Z</time>
      </trkpt>
      <trkpt lat="45.78733" lon="5.35085">
        <ele>331</ele>
        <time>2017-02-15T11:00:31Z</time>
      </trkpt>
      <trkpt lat="45.78778" lon="5.3495">
        <ele>334</ele>
        <time>2017-02-15T11:00:57Z</time>
      </trkpt>
      <trkpt lat="45.788" lon="5.34903">
        <ele>334</ele>
        <time>2017-02-15T11:01:07Z</time>
      </trkpt>
      <trkpt lat="45.78875" lon="5.34767">
        <ele>335</ele>
        <time>2017-02-15T11:01:37Z</time>
      </trkpt>
      <trkpt lat="45.78944" lon="5.34616">
        <ele>341</ele>
        <time>2017-02-15T11:02:07Z</time>
      </trkpt>
      <trkpt lat="45.78964" lon="5.34552">
        <ele>340</ele>
        <time>2017-02-15T11:02:19Z</time>
      </trkpt>
      <trkpt lat="45.78976" lon="5.3448">
        <ele>342</ele>
        <time>2017-02-15T11:02:33Z</time>
      </trkpt>
      <trkpt lat="45.7897" lon="5.3438">
        <ele>340</ele>
        <time>2017-02-15T11:02:52Z</time>
      </trkpt>
      <trkpt lat="45.78971" lon="5.34348">
        <ele>339</ele>
        <time>2017-02-15T11:02:58Z</time>
      </trkpt>
      <trkpt lat="45.78981" lon="5.34245">
        <ele>340</ele>
        <time>2017-02-15T11:03:31Z</time>
      </trkpt>
      <trkpt lat="45.78986" lon="5.34167">
        <ele>345</ele>
        <time>2017-02-15T11:04:04Z</time>
      </trkpt>
      <trkpt lat="45.78992" lon="5.34141">
        <ele>346</ele>
        <time>2017-02-15T11:04:17Z</time>
      </trkpt>
      <trkpt lat="45.79012" lon="5.34132">
        <ele>346</ele>
        <time>2017-02-15T11:04:30Z</time>
      </trkpt>
      <trkpt lat="45.79072" lon="5.34105">
        <ele>345</ele>
        <time>2017-02-15T11:05:04Z</time>
      </trkpt>
      <trkpt lat="45.7911" lon="5.34079">
        <ele>343</ele>
        <time>2017-02-15T11:05:33Z</time>
      </trkpt>
      <trkpt lat="45.79136" lon="5.34059">
        <ele>345</ele>
        <time>2017-02-15T11:05:51Z</time>
      </trkpt>
      <trkpt lat="45.79142" lon="5.34064">
        <ele>346</ele>
        <time>2017-02-15T11:05:57Z</time>
      </trkpt>
      <trkpt lat="45.79168" lon="5.34125">
        <ele>350</ele>
        <time>2017-02-15T11:06:28Z</time>
      </trkpt>
      <trkpt lat="45.79198" lon="5.34186">
        <ele>352</ele>
        <time>2017-02-15T11:07:01Z</time>
      </trkpt>
      <trkpt lat="45.79215" lon="5.34203">
        <ele>351</ele>
        <time>2017-02-15T11:07:14Z</time>
      </trkpt>
      <trkpt lat="45.79228" lon="5.3421">
        <ele>351</ele>
        <time>2017-02-15T11:07:23Z</time>
      </trkpt>
      <trkpt lat="45.79274" lon="5.34223">
        <ele>354</ele>
        <time>2017-02-15T11:07:54Z</time>
      </trkpt>
      <trkpt lat="45.79291" lon="5.34239">
        <ele>354</ele>
        <time>2017-02-15T11:08:08Z</time>
      </trkpt>
      <trkpt lat="45.79308" lon="5.34259">
        <ele>354</ele>
        <time>2017-02-15T11:08:21Z</time>
      </trkpt>
      <trkpt lat="45.79345" lon="5.343">
        <ele>353</ele>
        <time>2017-02-15T11:08:51Z</time>
      </trkpt>
      <trkpt lat="45.79361" lon="5.34324">
        <ele>352</ele>
        <time>2017-02-15T11:09:06Z</time>
      </trkpt>
      <trkpt lat="45.79385" lon="5.34352">
        <ele>352</ele>
        <time>2017-02-15T11:09:26Z</time>
      </trkpt>
      <trkpt lat="45.79419" lon="5.34385">
        <ele>353</ele>
        <time>2017-02-15T11:09:52Z</time>
      </trkpt>
      <trkpt lat="45.79431" lon="5.34401">
        <ele>353</ele>
        <time>2017-02-15T11:10:03Z</time>
      </trkpt>
      <trkpt lat="45.79459" lon="5.34443">
        <ele>353</ele>
        <time>2017-02-15T11:10:33Z</time>
      </trkpt>
      <trkpt lat="45.795" lon="5.34478">
        <ele>354</ele>
        <time>2017-02-15T11:11:03Z</time>
      </trkpt>
      <trkpt lat="45.79529" lon="5.34509">
        <ele>355</ele>
        <time>2017-02-15T11:11:27Z</time>
      </trkpt>
      <trkpt lat="45.79553" lon="5.34534">
        <ele>356</ele>
        <time>2017-02-15T11:11:45Z</time>
      </trkpt>
      <trkpt lat="45.79594" lon="5.34564">
        <ele>358</ele>
        <time>2017-02-15T11:12:15Z</time>
      </trkpt>
      <trkpt lat="45.79606" lon="5.34574">
        <ele>358</ele>
        <time>2017-02-15T11:12:23Z</time>
      </trkpt>
      <trkpt lat="45.79613" lon="5.34578">
        <ele>358</ele>
        <time>2017-02-15T11:12:29Z</time>
      </trkpt>
      <trkpt lat="45.79621" lon="5.34575">
        <ele>359</ele>
        <time>2017-02-15T11:12:40Z</time>
      </trkpt>
      <trkpt lat="45.7963" lon="5.34563">
        <ele>360</ele>
        <time>2017-02-15T11:12:47Z</time>
      </trkpt>
      <trkpt lat="45.79634" lon="5.34548">
        <ele>361</ele>
        <time>2017-02-15T11:12:55Z</time>
      </trkpt>
      <trkpt lat="45.79657" lon="5.34486">
        <ele>362</ele>
        <time>2017-02-15T11:13:25Z</time>
      </trkpt>
      <trkpt lat="45.79662" lon="5.34477">
        <ele>362</ele>
        <time>2017-02-15T11:13:30Z</time>
      </trkpt>
      <trkpt lat="45.79668" lon="5.34477">
        <ele>362</ele>
        <time>2017-02-15T11:13:49Z</time>
      </trkpt>
      <trkpt lat="45.79688" lon="5.34425">
        <ele>363</ele>
        <time>2017-02-15T11:14:14Z</time>
      </trkpt>
      <trkpt lat="45.7972" lon="5.34389">
        <ele>366</ele>
        <time>2017-02-15T11:14:39Z</time>
      </trkpt>
      <trkpt lat="45.79724" lon="5.3438">
        <ele>367</ele>
        <time>2017-02-15T11:14:44Z</time>
      </trkpt>
      <trkpt lat="45.79729" lon="5.34377">
        <ele>368</ele>
        <time>2017-02-15T11:14:47Z</time>
      </trkpt>
      <trkpt lat="45.79764" lon="5.34348">
        <ele>369</ele>
        <time>2017-02-15T11:15:11Z</time>
      </trkpt>
      <trkpt lat="45.79786" lon="5.34316">
        <ele>368</ele>
        <time>2017-02-15T11:15:33Z</time>
      </trkpt>
      <trkpt lat="45.79796" lon="5.34294">
        <ele>367</ele>
        <time>2017-02-15T11:15:43Z</time>
      </trkpt>
      <trkpt lat="45.79809" lon="5.34252">
        <ele>365</ele>
        <time>2017-02-15T11:16:04Z</time>
      </trkpt>
      <trkpt lat="45.79824" lon="5.3424">
        <ele>364</ele>
        <time>2017-02-15T11:16:15Z</time>
      </trkpt>
      <trkpt lat="45.79832" lon="5.34237">
        <ele>364</ele>
        <time>2017-02-15T11:16:21Z</time>
      </trkpt>
      <trkpt lat="45.79837" lon="5.3423">
        <ele>364</ele>
        <time>2017-02-15T11:16:26Z</time>
      </trkpt>
      <trkpt lat="45.79844" lon="5.34226">
        <ele>364</ele>
        <time>2017-02-15T11:16:30Z</time>
      </trkpt>
      <trkpt lat="45.79863" lon="5.34212">
        <ele>366</ele>
        <time>2017-02-15T11:16:47Z</time>
      </trkpt>
      <trkpt lat="45.79903" lon="5.34178">
        <ele>366</ele>
        <time>2017-02-15T11:17:18Z</time>
      </trkpt>
      <trkpt lat="45.79907" lon="5.34169">
        <ele>366</ele>
        <time>2017-02-15T11:17:22Z</time>
      </trkpt>
      <trkpt lat="45.79929" lon="5.34106">
        <ele>365</ele>
        <time>2017-02-15T11:17:52Z</time>
      </trkpt>
      <trkpt lat="45.79931" lon="5.34086">
        <ele>365</ele>
        <time>2017-02-15T11:18:01Z</time>
      </trkpt>
      <trkpt lat="45.79928" lon="5.34076">
        <ele>364</ele>
        <time>2017-02-15T11:18:05Z</time>
      </trkpt>
      <trkpt lat="45.79922" lon="5.34067">
        <ele>364</ele>
        <time>2017-02-15T11:18:09Z</time>
      </trkpt>
      <trkpt lat="45.79878" lon="5.34024">
        <ele>360</ele>
        <time>2017-02-15T11:18:41Z</time>
      </trkpt>
      <trkpt lat="45.79849" lon="5.3399">
        <ele>359</ele>
        <time>2017-02-15T11:19:05Z</time>
      </trkpt>
      <trkpt lat="45.79828" lon="5.33966">
        <ele>358</ele>
        <time>2017-02-15T11:19:22Z</time>
      </trkpt>
      <trkpt lat="45.79802" lon="5.33938">
        <ele>357</ele>
        <time>2017-02-15T11:19:41Z</time>
      </trkpt>
      <trkpt lat="45.79797" lon="5.3393">
        <ele>356</ele>
        <time>2017-02-15T11:19:47Z</time>
      </trkpt>
      <trkpt lat="45.79797" lon="5.33923">
        <ele>356</ele>
        <time>2017-02-15T11:19:50Z</time>
      </trkpt>
      <trkpt lat="45.79803" lon="5.33919">
        <ele>356</ele>
        <time>2017-02-15T11:19:55Z</time>
      </trkpt>
      <trkpt lat="45.79851" lon="5.33928">
        <ele>354</ele>
        <time>2017-02-15T11:20:27Z</time>
      </trkpt>
      <trkpt lat="45.79873" lon="5.33932">
        <ele>354</ele>
        <time>2017-02-15T11:20:44Z</time>
      </trkpt>
      <trkpt lat="45.79892" lon="5.33941">
        <ele>355</ele>
        <time>2017-02-15T11:20:57Z</time>
      </trkpt>
      <trkpt lat="45.79906" lon="5.33944">
        <ele>355</ele>
        <time>2017-02-15T11:21:08Z</time>
      </trkpt>
      <trkpt lat="45.7991" lon="5.33935">
        <ele>355</ele>
        <time>2017-02-15T11:21:44Z</time>
      </trkpt>
      <trkpt lat="45.79925" lon="5.33943">
        <ele>355</ele>
        <time>2017-02-15T11:22:12Z</time>
      </trkpt>
      <trkpt lat="45.79977" lon="5.33954">
        <ele>353</ele>
        <time>2017-02-15T11:22:45Z</time>
      </trkpt>
      <trkpt lat="45.8003" lon="5.33959">
        <ele>352</ele>
        <time>2017-02-15T11:23:18Z</time>
      </trkpt>
      <trkpt lat="45.80077" lon="5.33975">
        <ele>353</ele>
        <time>2017-02-15T11:23:49Z</time>
      </trkpt>
      <trkpt lat="45.80115" lon="5.33997">
        <ele>354</ele>
        <time>2017-02-15T11:24:14Z</time>
      </trkpt>
      <trkpt lat="45.80126" lon="5.34013">
        <ele>354</ele>
        <time>2017-02-15T11:24:25Z</time>
      </trkpt>
      <trkpt lat="45.8014" lon="5.34042">
        <ele>351</ele>
        <time>2017-02-15T11:24:42Z</time>
      </trkpt>
      <trkpt lat="45.80173" lon="5.34092">
        <ele>351</ele>
        <time>2017-02-15T11:25:15Z</time>
      </trkpt>
      <trkpt lat="45.80211" lon="5.34145">
        <ele>349</ele>
        <time>2017-02-15T11:25:48Z</time>
      </trkpt>
      <trkpt lat="45.80246" lon="5.34189">
        <ele>348</ele>
        <time>2017-02-15T11:26:19Z</time>
      </trkpt>
      <trkpt lat="45.80282" lon="5.34226">
        <ele>346</ele>
        <time>2017-02-15T11:26:51Z</time>
      </trkpt>
      <trkpt lat="45.80288" lon="5.34232">
        <ele>345</ele>
        <time>2017-02-15T11:26:57Z</time>
      </trkpt>
      <trkpt lat="45.8029" lon="5.3424">
        <ele>345</ele>
        <time>2017-02-15T11:27:03Z</time>
      </trkpt>
      <trkpt lat="45.80287" lon="5.3429">
        <ele>346</ele>
        <time>2017-02-15T11:27:26Z</time>
      </trkpt>
      <trkpt lat="45.80316" lon="5.34331">
        <ele>344</ele>
        <time>2017-02-15T11:27:49Z</time>
      </trkpt>
      <trkpt lat="45.80351" lon="5.34359">
        <ele>342</ele>
        <time>2017-02-15T11:28:17Z</time>
      </trkpt>
      <trkpt lat="45.80392" lon="5.34364">
        <ele>340</ele>
        <time>2017-02-15T11:28:49Z</time>
      </trkpt>
      <trkpt lat="45.80404" lon="5.34364">
        <ele>340</ele>
        <time>2017-02-15T11:28:57Z</time>
      </trkpt>
      <trkpt lat="45.8043" lon="5.34392">
        <ele>337</ele>
        <time>2017-02-15T11:29:21Z</time>
      </trkpt>
      <trkpt lat="45.80443" lon="5.34403">
        <ele>335</ele>
        <time>2017-02-15T11:29:31Z</time>
      </trkpt>
      <trkpt lat="45.80451" lon="5.34415">
        <ele>333</ele>
        <time>2017-02-15T11:29:37Z</time>
      </trkpt>
      <trkpt lat="45.80453" lon="5.34422">
        <ele>332</ele>
        <time>2017-02-15T11:29:41Z</time>
      </trkpt>
      <trkpt lat="45.80461" lon="5.34423">
        <ele>330</ele>
        <time>2017-02-15T11:29:58Z</time>
      </trkpt>
      <trkpt lat="45.80477" lon="5.34408">
        <ele>325</ele>
        <time>2017-02-15T11:30:08Z</time>
      </trkpt>
      <trkpt lat="45.80519" lon="5.34373">
        <ele>323</ele>
        <time>2017-02-15T11:30:40Z</time>
      </trkpt>
      <trkpt lat="45.80563" lon="5.34323">
        <ele>324</ele>
        <time>2017-02-15T11:31:16Z</time>
      </trkpt>
      <trkpt lat="45.80591" lon="5.34291">
        <ele>325</ele>
        <time>2017-02-15T11:31:37Z</time>
      </trkpt>
      <trkpt lat="45.80599" lon="5.34285">
        <ele>325</ele>
        <time>2017-02-15T11:31:44Z</time>
      </trkpt>
      <trkpt lat="45.80625" lon="5.34258">
        <ele>327</ele>
        <time>2017-02-15T11:32:05Z</time>
      </trkpt>
      <trkpt lat="45.80633" lon="5.34243">
        <ele>327</ele>
        <time>2017-02-15T11:32:12Z</time>
      </trkpt>
      <trkpt lat="45.80635" lon="5.34234">
        <ele>326</ele>
        <time>2017-02-15T11:32:21Z</time>
      </trkpt>
      <trkpt lat="45.80639" lon="5.34237">
        <ele>326</ele>
        <time>2017-02-15T11:33:01Z</time>
      </trkpt>
    </trkseg>
  </trk>
  <trk>
    <name><![CDATA[15 févr. 2017]]></name>
    <cmt><![CDATA[12:37:56]]></cmt>
    <desc><![CDATA[comment ...]]></desc>
    <trkseg>
      <trkpt lat="45.80507" lon="5.34218">
        <ele>335</ele>
        <time>2017-02-15T11:37:55Z</time>
      </trkpt>
      <trkpt lat="45.80504" lon="5.34216">
        <ele>336</ele>
        <time>2017-02-15T11:37:56Z</time>
      </trkpt>
      <trkpt lat="45.80492" lon="5.34208">
        <ele>338</ele>
        <time>2017-02-15T11:37:58Z</time>
      </trkpt>
      <trkpt lat="45.80486" lon="5.34206">
        <ele>344</ele>
        <time>2017-02-15T11:38:06Z</time>
      </trkpt>
      <trkpt lat="45.80481" lon="5.34202">
        <ele>345</ele>
        <time>2017-02-15T11:38:11Z</time>
      </trkpt>
      <trkpt lat="45.80477" lon="5.34196">
        <ele>346</ele>
        <time>2017-02-15T11:38:16Z</time>
      </trkpt>
      <trkpt lat="45.8045" lon="5.34132">
        <ele>348</ele>
        <time>2017-02-15T11:38:50Z</time>
      </trkpt>
      <trkpt lat="45.80448" lon="5.34118">
        <ele>349</ele>
        <time>2017-02-15T11:38:56Z</time>
      </trkpt>
      <trkpt lat="45.80435" lon="5.34057">
        <ele>353</ele>
        <time>2017-02-15T11:39:29Z</time>
      </trkpt>
      <trkpt lat="45.80433" lon="5.34043">
        <ele>355</ele>
        <time>2017-02-15T11:39:36Z</time>
      </trkpt>
      <trkpt lat="45.80432" lon="5.34006">
        <ele>359</ele>
        <time>2017-02-15T11:39:52Z</time>
      </trkpt>
      <trkpt lat="45.80433" lon="5.3399">
        <ele>362</ele>
        <time>2017-02-15T11:39:58Z</time>
      </trkpt>
      <trkpt lat="45.80427" lon="5.33974">
        <ele>363</ele>
        <time>2017-02-15T11:40:04Z</time>
      </trkpt>
      <trkpt lat="45.80425" lon="5.33955">
        <ele>367</ele>
        <time>2017-02-15T11:40:14Z</time>
      </trkpt>
      <trkpt lat="45.80424" lon="5.33917">
        <ele>371</ele>
        <time>2017-02-15T11:40:31Z</time>
      </trkpt>
      <trkpt lat="45.80428" lon="5.33878">
        <ele>371</ele>
        <time>2017-02-15T11:40:48Z</time>
      </trkpt>
      <trkpt lat="45.80433" lon="5.33849">
        <ele>372</ele>
        <time>2017-02-15T11:41:03Z</time>
      </trkpt>
      <trkpt lat="45.80441" lon="5.33821">
        <ele>374</ele>
        <time>2017-02-15T11:41:18Z</time>
      </trkpt>
      <trkpt lat="45.80452" lon="5.33783">
        <ele>375</ele>
        <time>2017-02-15T11:41:37Z</time>
      </trkpt>
      <trkpt lat="45.80447" lon="5.33735">
        <ele>374</ele>
        <time>2017-02-15T11:41:52Z</time>
      </trkpt>
      <trkpt lat="45.80444" lon="5.33713">
        <ele>372</ele>
        <time>2017-02-15T11:42:02Z</time>
      </trkpt>
      <trkpt lat="45.80429" lon="5.33685">
        <ele>371</ele>
        <time>2017-02-15T11:42:16Z</time>
      </trkpt>
      <trkpt lat="45.80406" lon="5.33648">
        <ele>369</ele>
        <time>2017-02-15T11:42:41Z</time>
      </trkpt>
      <trkpt lat="45.80393" lon="5.33635">
        <ele>370</ele>
        <time>2017-02-15T11:42:50Z</time>
      </trkpt>
      <trkpt lat="45.80387" lon="5.33628">
        <ele>370</ele>
        <time>2017-02-15T11:42:54Z</time>
      </trkpt>
      <trkpt lat="45.80376" lon="5.33625">
        <ele>370</ele>
        <time>2017-02-15T11:43:02Z</time>
      </trkpt>
      <trkpt lat="45.80332" lon="5.33625">
        <ele>369</ele>
        <time>2017-02-15T11:43:28Z</time>
      </trkpt>
      <trkpt lat="45.80289" lon="5.33662">
        <ele>370</ele>
        <time>2017-02-15T11:43:58Z</time>
      </trkpt>
      <trkpt lat="45.80279" lon="5.33674">
        <ele>369</ele>
        <time>2017-02-15T11:44:06Z</time>
      </trkpt>
      <trkpt lat="45.80268" lon="5.33684">
        <ele>368</ele>
        <time>2017-02-15T11:44:14Z</time>
      </trkpt>
      <trkpt lat="45.80255" lon="5.33695">
        <ele>366</ele>
        <time>2017-02-15T11:44:24Z</time>
      </trkpt>
      <trkpt lat="45.80248" lon="5.33702">
        <ele>364</ele>
        <time>2017-02-15T11:44:34Z</time>
      </trkpt>
      <trkpt lat="45.80234" lon="5.33698">
        <ele>361</ele>
        <time>2017-02-15T11:44:47Z</time>
      </trkpt>
      <trkpt lat="45.80193" lon="5.33674">
        <ele>362</ele>
        <time>2017-02-15T11:45:18Z</time>
      </trkpt>
      <trkpt lat="45.80156" lon="5.33658">
        <ele>362</ele>
        <time>2017-02-15T11:45:40Z</time>
      </trkpt>
      <trkpt lat="45.80127" lon="5.33667">
        <ele>363</ele>
        <time>2017-02-15T11:45:59Z</time>
      </trkpt>
      <trkpt lat="45.80069" lon="5.33688">
        <ele>363</ele>
        <time>2017-02-15T11:46:31Z</time>
      </trkpt>
      <trkpt lat="45.80028" lon="5.33723">
        <ele>360</ele>
        <time>2017-02-15T11:46:58Z</time>
      </trkpt>
      <trkpt lat="45.80016" lon="5.3373">
        <ele>359</ele>
        <time>2017-02-15T11:47:05Z</time>
      </trkpt>
      <trkpt lat="45.80008" lon="5.33743">
        <ele>358</ele>
        <time>2017-02-15T11:47:13Z</time>
      </trkpt>
      <trkpt lat="45.7999" lon="5.33773">
        <ele>356</ele>
        <time>2017-02-15T11:47:32Z</time>
      </trkpt>
      <trkpt lat="45.7997" lon="5.33789">
        <ele>356</ele>
        <time>2017-02-15T11:47:48Z</time>
      </trkpt>
      <trkpt lat="45.7994" lon="5.33828">
        <ele>356</ele>
        <time>2017-02-15T11:48:14Z</time>
      </trkpt>
      <trkpt lat="45.79936" lon="5.33849">
        <ele>356</ele>
        <time>2017-02-15T11:48:25Z</time>
      </trkpt>
      <trkpt lat="45.79929" lon="5.3388">
        <ele>356</ele>
        <time>2017-02-15T11:48:38Z</time>
      </trkpt>
      <trkpt lat="45.79909" lon="5.33934">
        <ele>355</ele>
        <time>2017-02-15T11:49:08Z</time>
      </trkpt>
      <trkpt lat="45.79902" lon="5.33938">
        <ele>355</ele>
        <time>2017-02-15T11:49:19Z</time>
      </trkpt>
      <trkpt lat="45.79878" lon="5.33926">
        <ele>356</ele>
        <time>2017-02-15T11:49:39Z</time>
      </trkpt>
      <trkpt lat="45.79829" lon="5.33919">
        <ele>357</ele>
        <time>2017-02-15T11:50:07Z</time>
      </trkpt>
      <trkpt lat="45.79808" lon="5.33916">
        <ele>358</ele>
        <time>2017-02-15T11:50:19Z</time>
      </trkpt>
      <trkpt lat="45.79801" lon="5.33917">
        <ele>358</ele>
        <time>2017-02-15T11:50:26Z</time>
      </trkpt>
      <trkpt lat="45.79792" lon="5.33926">
        <ele>360</ele>
        <time>2017-02-15T11:50:51Z</time>
      </trkpt>
      <trkpt lat="45.7979" lon="5.33927">
        <ele>360</ele>
        <time>2017-02-15T11:51:09Z</time>
      </trkpt>
      <trkpt lat="45.79831" lon="5.33976">
        <ele>363</ele>
        <time>2017-02-15T11:51:42Z</time>
      </trkpt>
      <trkpt lat="45.79848" lon="5.33996">
        <ele>361</ele>
        <time>2017-02-15T11:51:59Z</time>
      </trkpt>
      <trkpt lat="45.79867" lon="5.34017">
        <ele>362</ele>
        <time>2017-02-15T11:52:17Z</time>
      </trkpt>
      <trkpt lat="45.79913" lon="5.34064">
        <ele>363</ele>
        <time>2017-02-15T11:52:50Z</time>
      </trkpt>
      <trkpt lat="45.79924" lon="5.34077">
        <ele>363</ele>
        <time>2017-02-15T11:52:59Z</time>
      </trkpt>
      <trkpt lat="45.79929" lon="5.34085">
        <ele>363</ele>
        <time>2017-02-15T11:53:06Z</time>
      </trkpt>
      <trkpt lat="45.79928" lon="5.34098">
        <ele>364</ele>
        <time>2017-02-15T11:53:19Z</time>
      </trkpt>
      <trkpt lat="45.79917" lon="5.34119">
        <ele>364</ele>
        <time>2017-02-15T11:53:33Z</time>
      </trkpt>
      <trkpt lat="45.79911" lon="5.34136">
        <ele>364</ele>
        <time>2017-02-15T11:53:43Z</time>
      </trkpt>
      <trkpt lat="45.79896" lon="5.34171">
        <ele>364</ele>
        <time>2017-02-15T11:54:02Z</time>
      </trkpt>
      <trkpt lat="45.79868" lon="5.34197">
        <ele>365</ele>
        <time>2017-02-15T11:54:25Z</time>
      </trkpt>
      <trkpt lat="45.79855" lon="5.34211">
        <ele>366</ele>
        <time>2017-02-15T11:54:39Z</time>
      </trkpt>
      <trkpt lat="45.79838" lon="5.34219">
        <ele>367</ele>
        <time>2017-02-15T11:54:52Z</time>
      </trkpt>
      <trkpt lat="45.79821" lon="5.3423">
        <ele>368</ele>
        <time>2017-02-15T11:55:08Z</time>
      </trkpt>
      <trkpt lat="45.7981" lon="5.34239">
        <ele>368</ele>
        <time>2017-02-15T11:55:17Z</time>
      </trkpt>
      <trkpt lat="45.79807" lon="5.3425">
        <ele>368</ele>
        <time>2017-02-15T11:55:22Z</time>
      </trkpt>
      <trkpt lat="45.79811" lon="5.34258">
        <ele>367</ele>
        <time>2017-02-15T11:55:26Z</time>
      </trkpt>
      <trkpt lat="45.79806" lon="5.34268">
        <ele>366</ele>
        <time>2017-02-15T11:55:29Z</time>
      </trkpt>
      <trkpt lat="45.79791" lon="5.34318">
        <ele>365</ele>
        <time>2017-02-15T11:55:55Z</time>
      </trkpt>
      <trkpt lat="45.79794" lon="5.34322">
        <ele>365</ele>
        <time>2017-02-15T11:56:01Z</time>
      </trkpt>
      <trkpt lat="45.79796" lon="5.34328">
        <ele>364</ele>
        <time>2017-02-15T11:56:26Z</time>
      </trkpt>
      <trkpt lat="45.79795" lon="5.3433">
        <ele>365</ele>
        <time>2017-02-15T11:57:30Z</time>
      </trkpt>
    </trkseg>
  </trk>
  <trk>
    <name><![CDATA[15 févr. 2017]]></name>
    <cmt><![CDATA[13:28:22]]></cmt>
    <desc><![CDATA[comment ...]]></desc>
    <trkseg>
      <trkpt lat="45.79793" lon="5.34318">
        <ele>369</ele>
        <time>2017-02-15T12:28:23Z</time>
      </trkpt>
      <trkpt lat="45.79793" lon="5.34319">
        <ele>368</ele>
        <time>2017-02-15T12:28:24Z</time>
      </trkpt>
      <trkpt lat="45.79798" lon="5.34324">
        <ele>362</ele>
        <time>2017-02-15T12:28:30Z</time>
      </trkpt>
      <trkpt lat="45.798" lon="5.34313">
        <ele>362</ele>
        <time>2017-02-15T12:28:36Z</time>
      </trkpt>
      <trkpt lat="45.798" lon="5.34308">
        <ele>362</ele>
        <time>2017-02-15T12:29:07Z</time>
      </trkpt>
      <trkpt lat="45.79803" lon="5.343">
        <ele>362</ele>
        <time>2017-02-15T12:29:30Z</time>
      </trkpt>
      <trkpt lat="45.79805" lon="5.34293">
        <ele>362</ele>
        <time>2017-02-15T12:29:33Z</time>
      </trkpt>
      <trkpt lat="45.79809" lon="5.34252">
        <ele>362</ele>
        <time>2017-02-15T12:29:54Z</time>
      </trkpt>
      <trkpt lat="45.79815" lon="5.34244">
        <ele>362</ele>
        <time>2017-02-15T12:30:03Z</time>
      </trkpt>
      <trkpt lat="45.7982" lon="5.34234">
        <ele>362</ele>
        <time>2017-02-15T12:30:09Z</time>
      </trkpt>
      <trkpt lat="45.79841" lon="5.34224">
        <ele>362</ele>
        <time>2017-02-15T12:30:39Z</time>
      </trkpt>
      <trkpt lat="45.79854" lon="5.34219">
        <ele>362</ele>
        <time>2017-02-15T12:30:49Z</time>
      </trkpt>
      <trkpt lat="45.79869" lon="5.34211">
        <ele>363</ele>
        <time>2017-02-15T12:30:58Z</time>
      </trkpt>
      <trkpt lat="45.79906" lon="5.34175">
        <ele>364</ele>
        <time>2017-02-15T12:31:30Z</time>
      </trkpt>
      <trkpt lat="45.79918" lon="5.34151">
        <ele>366</ele>
        <time>2017-02-15T12:31:44Z</time>
      </trkpt>
      <trkpt lat="45.79933" lon="5.34097">
        <ele>364</ele>
        <time>2017-02-15T12:32:16Z</time>
      </trkpt>
      <trkpt lat="45.79939" lon="5.34095">
        <ele>363</ele>
        <time>2017-02-15T12:32:30Z</time>
      </trkpt>
      <trkpt lat="45.79972" lon="5.34118">
        <ele>365</ele>
        <time>2017-02-15T12:33:02Z</time>
      </trkpt>
      <trkpt lat="45.79977" lon="5.34124">
        <ele>366</ele>
        <time>2017-02-15T12:33:07Z</time>
      </trkpt>
      <trkpt lat="45.79983" lon="5.34141">
        <ele>366</ele>
        <time>2017-02-15T12:33:18Z</time>
      </trkpt>
      <trkpt lat="45.79986" lon="5.34162">
        <ele>367</ele>
        <time>2017-02-15T12:33:32Z</time>
      </trkpt>
      <trkpt lat="45.79984" lon="5.34182">
        <ele>367</ele>
        <time>2017-02-15T12:33:44Z</time>
      </trkpt>
      <trkpt lat="45.79976" lon="5.34198">
        <ele>368</ele>
        <time>2017-02-15T12:33:57Z</time>
      </trkpt>
      <trkpt lat="45.79961" lon="5.34276">
        <ele>371</ele>
        <time>2017-02-15T12:34:32Z</time>
      </trkpt>
      <trkpt lat="45.79959" lon="5.34344">
        <ele>374</ele>
        <time>2017-02-15T12:35:03Z</time>
      </trkpt>
      <trkpt lat="45.7997" lon="5.3438">
        <ele>373</ele>
        <time>2017-02-15T12:35:18Z</time>
      </trkpt>
      <trkpt lat="45.79973" lon="5.34393">
        <ele>372</ele>
        <time>2017-02-15T12:35:25Z</time>
      </trkpt>
      <trkpt lat="45.80002" lon="5.34438">
        <ele>374</ele>
        <time>2017-02-15T12:35:53Z</time>
      </trkpt>
      <trkpt lat="45.80009" lon="5.34448">
        <ele>375</ele>
        <time>2017-02-15T12:35:59Z</time>
      </trkpt>
      <trkpt lat="45.80034" lon="5.34479">
        <ele>378</ele>
        <time>2017-02-15T12:36:20Z</time>
      </trkpt>
      <trkpt lat="45.80049" lon="5.34482">
        <ele>377</ele>
        <time>2017-02-15T12:36:28Z</time>
      </trkpt>
      <trkpt lat="45.80065" lon="5.3448">
        <ele>377</ele>
        <time>2017-02-15T12:36:39Z</time>
      </trkpt>
      <trkpt lat="45.8011" lon="5.34473">
        <ele>375</ele>
        <time>2017-02-15T12:37:12Z</time>
      </trkpt>
      <trkpt lat="45.8013" lon="5.34465">
        <ele>375</ele>
        <time>2017-02-15T12:37:27Z</time>
      </trkpt>
      <trkpt lat="45.80145" lon="5.34457">
        <ele>375</ele>
        <time>2017-02-15T12:37:39Z</time>
      </trkpt>
      <trkpt lat="45.80184" lon="5.34427">
        <ele>374</ele>
        <time>2017-02-15T12:38:09Z</time>
      </trkpt>
      <trkpt lat="45.80216" lon="5.34382">
        <ele>374</ele>
        <time>2017-02-15T12:38:41Z</time>
      </trkpt>
      <trkpt lat="45.80222" lon="5.3436">
        <ele>372</ele>
        <time>2017-02-15T12:38:49Z</time>
      </trkpt>
      <trkpt lat="45.80221" lon="5.34349">
        <ele>371</ele>
        <time>2017-02-15T12:38:54Z</time>
      </trkpt>
      <trkpt lat="45.8022" lon="5.34322">
        <ele>368</ele>
        <time>2017-02-15T12:39:07Z</time>
      </trkpt>
      <trkpt lat="45.80195" lon="5.3427">
        <ele>365</ele>
        <time>2017-02-15T12:39:39Z</time>
      </trkpt>
      <trkpt lat="45.80187" lon="5.34255">
        <ele>363</ele>
        <time>2017-02-15T12:39:48Z</time>
      </trkpt>
      <trkpt lat="45.80183" lon="5.34227">
        <ele>361</ele>
        <time>2017-02-15T12:40:06Z</time>
      </trkpt>
      <trkpt lat="45.80181" lon="5.34184">
        <ele>363</ele>
        <time>2017-02-15T12:40:27Z</time>
      </trkpt>
      <trkpt lat="45.80194" lon="5.34149">
        <ele>366</ele>
        <time>2017-02-15T12:40:50Z</time>
      </trkpt>
      <trkpt lat="45.80193" lon="5.34139">
        <ele>367</ele>
        <time>2017-02-15T12:40:54Z</time>
      </trkpt>
      <trkpt lat="45.80193" lon="5.3413">
        <ele>374</ele>
        <time>2017-02-15T12:42:15Z</time>
      </trkpt>
      <trkpt lat="45.80196" lon="5.3413">
        <ele>374</ele>
        <time>2017-02-15T12:42:33Z</time>
      </trkpt>
      <trkpt lat="45.80191" lon="5.34121">
        <ele>374</ele>
        <time>2017-02-15T12:42:38Z</time>
      </trkpt>
      <trkpt lat="45.80161" lon="5.34071">
        <ele>360</ele>
        <time>2017-02-15T12:43:12Z</time>
      </trkpt>
      <trkpt lat="45.80153" lon="5.34066">
        <ele>359</ele>
        <time>2017-02-15T12:43:17Z</time>
      </trkpt>
      <trkpt lat="45.80143" lon="5.34045">
        <ele>357</ele>
        <time>2017-02-15T12:43:32Z</time>
      </trkpt>
      <trkpt lat="45.8013" lon="5.34017">
        <ele>356</ele>
        <time>2017-02-15T12:43:46Z</time>
      </trkpt>
      <trkpt lat="45.80125" lon="5.3401">
        <ele>356</ele>
        <time>2017-02-15T12:43:50Z</time>
      </trkpt>
      <trkpt lat="45.80135" lon="5.34008">
        <ele>357</ele>
        <time>2017-02-15T12:44:14Z</time>
      </trkpt>
      <trkpt lat="45.80147" lon="5.34012">
        <ele>359</ele>
        <time>2017-02-15T12:44:23Z</time>
      </trkpt>
      <trkpt lat="45.80195" lon="5.34036">
        <ele>363</ele>
        <time>2017-02-15T12:44:53Z</time>
      </trkpt>
      <trkpt lat="45.80236" lon="5.34056">
        <ele>368</ele>
        <time>2017-02-15T12:45:24Z</time>
      </trkpt>
      <trkpt lat="45.80285" lon="5.34075">
        <ele>370</ele>
        <time>2017-02-15T12:45:58Z</time>
      </trkpt>
      <trkpt lat="45.80331" lon="5.34106">
        <ele>371</ele>
        <time>2017-02-15T12:46:30Z</time>
      </trkpt>
      <trkpt lat="45.8035" lon="5.34112">
        <ele>372</ele>
        <time>2017-02-15T12:46:44Z</time>
      </trkpt>
      <trkpt lat="45.80408" lon="5.34124">
        <ele>378</ele>
        <time>2017-02-15T12:47:18Z</time>
      </trkpt>
      <trkpt lat="45.80426" lon="5.34124">
        <ele>380</ele>
        <time>2017-02-15T12:47:32Z</time>
      </trkpt>
      <trkpt lat="45.80435" lon="5.34113">
        <ele>381</ele>
        <time>2017-02-15T12:47:40Z</time>
      </trkpt>
      <trkpt lat="45.80442" lon="5.34049">
        <ele>379</ele>
        <time>2017-02-15T12:48:09Z</time>
      </trkpt>
      <trkpt lat="45.80443" lon="5.34037">
        <ele>380</ele>
        <time>2017-02-15T12:48:16Z</time>
      </trkpt>
      <trkpt lat="45.80432" lon="5.33967">
        <ele>382</ele>
        <time>2017-02-15T12:48:45Z</time>
      </trkpt>
      <trkpt lat="45.80429" lon="5.33936">
        <ele>382</ele>
        <time>2017-02-15T12:49:00Z</time>
      </trkpt>
      <trkpt lat="45.80431" lon="5.3389">
        <ele>380</ele>
        <time>2017-02-15T12:49:21Z</time>
      </trkpt>
      <trkpt lat="45.80434" lon="5.3387">
        <ele>384</ele>
        <time>2017-02-15T12:49:31Z</time>
      </trkpt>
      <trkpt lat="45.80438" lon="5.33836">
        <ele>385</ele>
        <time>2017-02-15T12:49:45Z</time>
      </trkpt>
      <trkpt lat="45.80444" lon="5.33815">
        <ele>384</ele>
        <time>2017-02-15T12:49:57Z</time>
      </trkpt>
      <trkpt lat="45.80446" lon="5.33804">
        <ele>385</ele>
        <time>2017-02-15T12:50:02Z</time>
      </trkpt>
      <trkpt lat="45.80451" lon="5.33775">
        <ele>385</ele>
        <time>2017-02-15T12:50:14Z</time>
      </trkpt>
      <trkpt lat="45.8045" lon="5.33747">
        <ele>382</ele>
        <time>2017-02-15T12:50:27Z</time>
      </trkpt>
      <trkpt lat="45.80453" lon="5.33735">
        <ele>381</ele>
        <time>2017-02-15T12:50:33Z</time>
      </trkpt>
      <trkpt lat="45.80451" lon="5.33723">
        <ele>380</ele>
        <time>2017-02-15T12:50:38Z</time>
      </trkpt>
      <trkpt lat="45.80447" lon="5.33717">
        <ele>379</ele>
        <time>2017-02-15T12:50:40Z</time>
      </trkpt>
      <trkpt lat="45.80444" lon="5.33709">
        <ele>379</ele>
        <time>2017-02-15T12:50:43Z</time>
      </trkpt>
      <trkpt lat="45.80445" lon="5.33699">
        <ele>378</ele>
        <time>2017-02-15T12:50:48Z</time>
      </trkpt>
      <trkpt lat="45.80446" lon="5.33683">
        <ele>377</ele>
        <time>2017-02-15T12:50:54Z</time>
      </trkpt>
      <trkpt lat="45.80452" lon="5.33664">
        <ele>375</ele>
        <time>2017-02-15T12:51:03Z</time>
      </trkpt>
      <trkpt lat="45.8045" lon="5.33639">
        <ele>374</ele>
        <time>2017-02-15T12:51:12Z</time>
      </trkpt>
      <trkpt lat="45.80461" lon="5.33575">
        <ele>378</ele>
        <time>2017-02-15T12:51:43Z</time>
      </trkpt>
      <trkpt lat="45.80468" lon="5.33537">
        <ele>380</ele>
        <time>2017-02-15T12:51:59Z</time>
      </trkpt>
      <trkpt lat="45.8047" lon="5.33516">
        <ele>381</ele>
        <time>2017-02-15T12:52:08Z</time>
      </trkpt>
      <trkpt lat="45.80475" lon="5.33444">
        <ele>378</ele>
        <time>2017-02-15T12:52:30Z</time>
      </trkpt>
      <trkpt lat="45.80507" lon="5.33339">
        <ele>373</ele>
        <time>2017-02-15T12:52:52Z</time>
      </trkpt>
      <trkpt lat="45.80557" lon="5.33245">
        <ele>376</ele>
        <time>2017-02-15T12:53:24Z</time>
      </trkpt>
      <trkpt lat="45.80577" lon="5.33185">
        <ele>378</ele>
        <time>2017-02-15T12:53:54Z</time>
      </trkpt>
      <trkpt lat="45.80579" lon="5.33174">
        <ele>378</ele>
        <time>2017-02-15T12:53:59Z</time>
      </trkpt>
      <trkpt lat="45.80583" lon="5.33118">
        <ele>376</ele>
        <time>2017-02-15T12:54:21Z</time>
      </trkpt>
      <trkpt lat="45.80581" lon="5.33047">
        <ele>373</ele>
        <time>2017-02-15T12:54:51Z</time>
      </trkpt>
      <trkpt lat="45.80579" lon="5.32969">
        <ele>369</ele>
        <time>2017-02-15T12:55:23Z</time>
      </trkpt>
      <trkpt lat="45.80577" lon="5.32958">
        <ele>369</ele>
        <time>2017-02-15T12:55:27Z</time>
      </trkpt>
      <trkpt lat="45.80569" lon="5.32935">
        <ele>368</ele>
        <time>2017-02-15T12:55:37Z</time>
      </trkpt>
      <trkpt lat="45.80571" lon="5.32927">
        <ele>368</ele>
        <time>2017-02-15T12:55:40Z</time>
      </trkpt>
      <trkpt lat="45.80567" lon="5.32913">
        <ele>369</ele>
        <time>2017-02-15T12:55:45Z</time>
      </trkpt>
      <trkpt lat="45.80548" lon="5.32898">
        <ele>369</ele>
        <time>2017-02-15T12:55:54Z</time>
      </trkpt>
      <trkpt lat="45.80507" lon="5.32871">
        <ele>363</ele>
        <time>2017-02-15T12:56:20Z</time>
      </trkpt>
      <trkpt lat="45.80493" lon="5.32872">
        <ele>363</ele>
        <time>2017-02-15T12:56:30Z</time>
      </trkpt>
      <trkpt lat="45.80464" lon="5.32877">
        <ele>361</ele>
        <time>2017-02-15T12:56:45Z</time>
      </trkpt>
      <trkpt lat="45.80406" lon="5.32878">
        <ele>358</ele>
        <time>2017-02-15T12:57:16Z</time>
      </trkpt>
      <trkpt lat="45.80351" lon="5.32885">
        <ele>359</ele>
        <time>2017-02-15T12:57:47Z</time>
      </trkpt>
      <trkpt lat="45.80345" lon="5.32884">
        <ele>359</ele>
        <time>2017-02-15T12:57:51Z</time>
      </trkpt>
      <trkpt lat="45.8034" lon="5.3288">
        <ele>359</ele>
        <time>2017-02-15T12:57:54Z</time>
      </trkpt>
      <trkpt lat="45.80335" lon="5.32874">
        <ele>359</ele>
        <time>2017-02-15T12:57:58Z</time>
      </trkpt>
      <trkpt lat="45.80311" lon="5.32815">
        <ele>360</ele>
        <time>2017-02-15T12:58:30Z</time>
      </trkpt>
      <trkpt lat="45.8029" lon="5.3278">
        <ele>360</ele>
        <time>2017-02-15T12:58:48Z</time>
      </trkpt>
      <trkpt lat="45.80252" lon="5.32776">
        <ele>360</ele>
        <time>2017-02-15T12:59:06Z</time>
      </trkpt>
      <trkpt lat="45.80228" lon="5.32774">
        <ele>358</ele>
        <time>2017-02-15T12:59:22Z</time>
      </trkpt>
      <trkpt lat="45.80208" lon="5.32766">
        <ele>357</ele>
        <time>2017-02-15T12:59:35Z</time>
      </trkpt>
      <trkpt lat="45.80156" lon="5.32743">
        <ele>354</ele>
        <time>2017-02-15T13:00:07Z</time>
      </trkpt>
      <trkpt lat="45.8015" lon="5.32727">
        <ele>354</ele>
        <time>2017-02-15T13:00:16Z</time>
      </trkpt>
      <trkpt lat="45.80141" lon="5.32704">
        <ele>355</ele>
        <time>2017-02-15T13:00:29Z</time>
      </trkpt>
      <trkpt lat="45.8013" lon="5.32699">
        <ele>356</ele>
        <time>2017-02-15T13:00:37Z</time>
      </trkpt>
      <trkpt lat="45.80091" lon="5.32683">
        <ele>360</ele>
        <time>2017-02-15T13:01:02Z</time>
      </trkpt>
      <trkpt lat="45.8006" lon="5.32673">
        <ele>361</ele>
        <time>2017-02-15T13:01:23Z</time>
      </trkpt>
      <trkpt lat="45.80015" lon="5.32662">
        <ele>362</ele>
        <time>2017-02-15T13:01:53Z</time>
      </trkpt>
      <trkpt lat="45.79994" lon="5.32659">
        <ele>361</ele>
        <time>2017-02-15T13:02:09Z</time>
      </trkpt>
      <trkpt lat="45.79974" lon="5.32647">
        <ele>362</ele>
        <time>2017-02-15T13:02:22Z</time>
      </trkpt>
      <trkpt lat="45.79969" lon="5.32643">
        <ele>362</ele>
        <time>2017-02-15T13:02:25Z</time>
      </trkpt>
      <trkpt lat="45.79929" lon="5.32625">
        <ele>359</ele>
        <time>2017-02-15T13:02:52Z</time>
      </trkpt>
      <trkpt lat="45.79918" lon="5.32622">
        <ele>358</ele>
        <time>2017-02-15T13:03:00Z</time>
      </trkpt>
      <trkpt lat="45.79902" lon="5.32614">
        <ele>357</ele>
        <time>2017-02-15T13:03:10Z</time>
      </trkpt>
      <trkpt lat="45.79867" lon="5.32604">
        <ele>356</ele>
        <time>2017-02-15T13:03:30Z</time>
      </trkpt>
      <trkpt lat="45.79824" lon="5.3261">
        <ele>354</ele>
        <time>2017-02-15T13:03:53Z</time>
      </trkpt>
      <trkpt lat="45.79795" lon="5.32628">
        <ele>353</ele>
        <time>2017-02-15T13:04:11Z</time>
      </trkpt>
      <trkpt lat="45.79784" lon="5.32649">
        <ele>352</ele>
        <time>2017-02-15T13:04:21Z</time>
      </trkpt>
      <trkpt lat="45.79744" lon="5.32686">
        <ele>349</ele>
        <time>2017-02-15T13:04:51Z</time>
      </trkpt>
      <trkpt lat="45.79733" lon="5.32694">
        <ele>348</ele>
        <time>2017-02-15T13:05:01Z</time>
      </trkpt>
      <trkpt lat="45.79728" lon="5.3269">
        <ele>346</ele>
        <time>2017-02-15T13:05:14Z</time>
      </trkpt>
      <trkpt lat="45.79722" lon="5.32681">
        <ele>344</ele>
        <time>2017-02-15T13:05:19Z</time>
      </trkpt>
      <trkpt lat="45.79714" lon="5.32679">
        <ele>344</ele>
        <time>2017-02-15T13:05:21Z</time>
      </trkpt>
      <trkpt lat="45.79704" lon="5.3268">
        <ele>343</ele>
        <time>2017-02-15T13:05:23Z</time>
      </trkpt>
      <trkpt lat="45.79691" lon="5.32689">
        <ele>342</ele>
        <time>2017-02-15T13:05:31Z</time>
      </trkpt>
      <trkpt lat="45.79679" lon="5.32703">
        <ele>342</ele>
        <time>2017-02-15T13:05:42Z</time>
      </trkpt>
      <trkpt lat="45.79669" lon="5.32739">
        <ele>342</ele>
        <time>2017-02-15T13:06:00Z</time>
      </trkpt>
      <trkpt lat="45.79647" lon="5.32806">
        <ele>342</ele>
        <time>2017-02-15T13:06:33Z</time>
      </trkpt>
      <trkpt lat="45.79639" lon="5.32808">
        <ele>341</ele>
        <time>2017-02-15T13:06:40Z</time>
      </trkpt>
      <trkpt lat="45.7963" lon="5.32794">
        <ele>340</ele>
        <time>2017-02-15T13:06:50Z</time>
      </trkpt>
      <trkpt lat="45.79604" lon="5.3274">
        <ele>339</ele>
        <time>2017-02-15T13:07:19Z</time>
      </trkpt>
      <trkpt lat="45.79593" lon="5.32719">
        <ele>340</ele>
        <time>2017-02-15T13:07:31Z</time>
      </trkpt>
      <trkpt lat="45.79572" lon="5.32656">
        <ele>343</ele>
        <time>2017-02-15T13:08:02Z</time>
      </trkpt>
      <trkpt lat="45.79544" lon="5.32613">
        <ele>345</ele>
        <time>2017-02-15T13:08:30Z</time>
      </trkpt>
      <trkpt lat="45.7952" lon="5.32608">
        <ele>345</ele>
        <time>2017-02-15T13:08:44Z</time>
      </trkpt>
      <trkpt lat="45.79499" lon="5.32603">
        <ele>343</ele>
        <time>2017-02-15T13:09:00Z</time>
      </trkpt>
      <trkpt lat="45.79483" lon="5.32589">
        <ele>342</ele>
        <time>2017-02-15T13:09:12Z</time>
      </trkpt>
      <trkpt lat="45.79461" lon="5.32571">
        <ele>342</ele>
        <time>2017-02-15T13:09:25Z</time>
      </trkpt>
      <trkpt lat="45.79431" lon="5.32557">
        <ele>342</ele>
        <time>2017-02-15T13:09:49Z</time>
      </trkpt>
      <trkpt lat="45.79381" lon="5.32536">
        <ele>340</ele>
        <time>2017-02-15T13:10:21Z</time>
      </trkpt>
      <trkpt lat="45.79335" lon="5.32533">
        <ele>338</ele>
        <time>2017-02-15T13:10:51Z</time>
      </trkpt>
      <trkpt lat="45.79317" lon="5.32534">
        <ele>337</ele>
        <time>2017-02-15T13:11:04Z</time>
      </trkpt>
      <trkpt lat="45.79298" lon="5.3254">
        <ele>338</ele>
        <time>2017-02-15T13:11:15Z</time>
      </trkpt>
      <trkpt lat="45.79262" lon="5.32538">
        <ele>339</ele>
        <time>2017-02-15T13:11:38Z</time>
      </trkpt>
      <trkpt lat="45.79213" lon="5.32543">
        <ele>340</ele>
        <time>2017-02-15T13:12:10Z</time>
      </trkpt>
      <trkpt lat="45.79194" lon="5.32548">
        <ele>339</ele>
        <time>2017-02-15T13:12:23Z</time>
      </trkpt>
      <trkpt lat="45.79181" lon="5.32546">
        <ele>339</ele>
        <time>2017-02-15T13:12:35Z</time>
      </trkpt>
      <trkpt lat="45.79165" lon="5.32525">
        <ele>338</ele>
        <time>2017-02-15T13:12:57Z</time>
      </trkpt>
      <trkpt lat="45.79165" lon="5.32511">
        <ele>338</ele>
        <time>2017-02-15T13:13:10Z</time>
      </trkpt>
      <trkpt lat="45.79191" lon="5.32454">
        <ele>341</ele>
        <time>2017-02-15T13:13:41Z</time>
      </trkpt>
      <trkpt lat="45.79192" lon="5.32435">
        <ele>340</ele>
        <time>2017-02-15T13:13:51Z</time>
      </trkpt>
      <trkpt lat="45.7919" lon="5.32425">
        <ele>340</ele>
        <time>2017-02-15T13:13:56Z</time>
      </trkpt>
      <trkpt lat="45.79194" lon="5.32415">
        <ele>341</ele>
        <time>2017-02-15T13:14:01Z</time>
      </trkpt>
      <trkpt lat="45.79209" lon="5.32392">
        <ele>342</ele>
        <time>2017-02-15T13:14:14Z</time>
      </trkpt>
      <trkpt lat="45.79244" lon="5.32342">
        <ele>347</ele>
        <time>2017-02-15T13:14:46Z</time>
      </trkpt>
      <trkpt lat="45.79253" lon="5.32324">
        <ele>349</ele>
        <time>2017-02-15T13:14:55Z</time>
      </trkpt>
      <trkpt lat="45.79256" lon="5.32312">
        <ele>349</ele>
        <time>2017-02-15T13:15:00Z</time>
      </trkpt>
      <trkpt lat="45.79253" lon="5.3229">
        <ele>350</ele>
        <time>2017-02-15T13:15:10Z</time>
      </trkpt>
      <trkpt lat="45.79242" lon="5.32251">
        <ele>349</ele>
        <time>2017-02-15T13:15:27Z</time>
      </trkpt>
      <trkpt lat="45.79234" lon="5.32229">
        <ele>349</ele>
        <time>2017-02-15T13:15:38Z</time>
      </trkpt>
      <trkpt lat="45.79205" lon="5.32183">
        <ele>351</ele>
        <time>2017-02-15T13:16:06Z</time>
      </trkpt>
      <trkpt lat="45.7918" lon="5.32162">
        <ele>351</ele>
        <time>2017-02-15T13:16:25Z</time>
      </trkpt>
      <trkpt lat="45.79144" lon="5.32139">
        <ele>352</ele>
        <time>2017-02-15T13:16:55Z</time>
      </trkpt>
      <trkpt lat="45.79127" lon="5.32117">
        <ele>354</ele>
        <time>2017-02-15T13:17:10Z</time>
      </trkpt>
      <trkpt lat="45.79089" lon="5.32065">
        <ele>354</ele>
        <time>2017-02-15T13:17:41Z</time>
      </trkpt>
      <trkpt lat="45.79072" lon="5.32043">
        <ele>355</ele>
        <time>2017-02-15T13:17:58Z</time>
      </trkpt>
      <trkpt lat="45.79052" lon="5.32021">
        <ele>356</ele>
        <time>2017-02-15T13:18:18Z</time>
      </trkpt>
      <trkpt lat="45.79029" lon="5.32011">
        <ele>357</ele>
        <time>2017-02-15T13:18:31Z</time>
      </trkpt>
      <trkpt lat="45.78996" lon="5.31978">
        <ele>358</ele>
        <time>2017-02-15T13:19:02Z</time>
      </trkpt>
      <trkpt lat="45.78984" lon="5.31967">
        <ele>358</ele>
        <time>2017-02-15T13:19:07Z</time>
      </trkpt>
      <trkpt lat="45.78967" lon="5.31945">
        <ele>357</ele>
        <time>2017-02-15T13:19:24Z</time>
      </trkpt>
      <trkpt lat="45.78966" lon="5.3194">
        <ele>357</ele>
        <time>2017-02-15T13:19:27Z</time>
      </trkpt>
      <trkpt lat="45.78953" lon="5.31923">
        <ele>358</ele>
        <time>2017-02-15T13:19:38Z</time>
      </trkpt>
      <trkpt lat="45.78928" lon="5.31897">
        <ele>357</ele>
        <time>2017-02-15T13:19:55Z</time>
      </trkpt>
      <trkpt lat="45.78901" lon="5.31876">
        <ele>357</ele>
        <time>2017-02-15T13:20:04Z</time>
      </trkpt>
      <trkpt lat="45.78838" lon="5.31827">
        <ele>357</ele>
        <time>2017-02-15T13:20:22Z</time>
      </trkpt>
      <trkpt lat="45.78792" lon="5.31784">
        <ele>357</ele>
        <time>2017-02-15T13:20:36Z</time>
      </trkpt>
      <trkpt lat="45.78677" lon="5.31719">
        <ele>354</ele>
        <time>2017-02-15T13:21:06Z</time>
      </trkpt>
      <trkpt lat="45.78621" lon="5.31699">
        <ele>357</ele>
        <time>2017-02-15T13:21:22Z</time>
      </trkpt>
      <trkpt lat="45.78608" lon="5.31685">
        <ele>357</ele>
        <time>2017-02-15T13:21:27Z</time>
      </trkpt>
      <trkpt lat="45.78564" lon="5.31629">
        <ele>358</ele>
        <time>2017-02-15T13:22:02Z</time>
      </trkpt>
      <trkpt lat="45.78547" lon="5.316">
        <ele>358</ele>
        <time>2017-02-15T13:22:18Z</time>
      </trkpt>
      <trkpt lat="45.78532" lon="5.31587">
        <ele>358</ele>
        <time>2017-02-15T13:22:28Z</time>
      </trkpt>
      <trkpt lat="45.78481" lon="5.3156">
        <ele>355</ele>
        <time>2017-02-15T13:22:58Z</time>
      </trkpt>
      <trkpt lat="45.78429" lon="5.3152">
        <ele>353</ele>
        <time>2017-02-15T13:23:31Z</time>
      </trkpt>
      <trkpt lat="45.78409" lon="5.31495">
        <ele>353</ele>
        <time>2017-02-15T13:23:45Z</time>
      </trkpt>
      <trkpt lat="45.78406" lon="5.31484">
        <ele>352</ele>
        <time>2017-02-15T13:23:49Z</time>
      </trkpt>
      <trkpt lat="45.78402" lon="5.31466">
        <ele>351</ele>
        <time>2017-02-15T13:23:56Z</time>
      </trkpt>
      <trkpt lat="45.78397" lon="5.31459">
        <ele>350</ele>
        <time>2017-02-15T13:24:01Z</time>
      </trkpt>
      <trkpt lat="45.78392" lon="5.31452">
        <ele>350</ele>
        <time>2017-02-15T13:24:05Z</time>
      </trkpt>
      <trkpt lat="45.78384" lon="5.31447">
        <ele>349</ele>
        <time>2017-02-15T13:24:12Z</time>
      </trkpt>
      <trkpt lat="45.7837" lon="5.31455">
        <ele>349</ele>
        <time>2017-02-15T13:24:20Z</time>
      </trkpt>
      <trkpt lat="45.78363" lon="5.31461">
        <ele>349</ele>
        <time>2017-02-15T13:24:25Z</time>
      </trkpt>
      <trkpt lat="45.78342" lon="5.31489">
        <ele>349</ele>
        <time>2017-02-15T13:24:41Z</time>
      </trkpt>
      <trkpt lat="45.78304" lon="5.31545">
        <ele>354</ele>
        <time>2017-02-15T13:25:12Z</time>
      </trkpt>
      <trkpt lat="45.78269" lon="5.31603">
        <ele>356</ele>
        <time>2017-02-15T13:25:42Z</time>
      </trkpt>
      <trkpt lat="45.78253" lon="5.3162">
        <ele>356</ele>
        <time>2017-02-15T13:25:54Z</time>
      </trkpt>
      <trkpt lat="45.78234" lon="5.31628">
        <ele>355</ele>
        <time>2017-02-15T13:26:06Z</time>
      </trkpt>
      <trkpt lat="45.78185" lon="5.31644">
        <ele>350</ele>
        <time>2017-02-15T13:26:36Z</time>
      </trkpt>
      <trkpt lat="45.78156" lon="5.31666">
        <ele>349</ele>
        <time>2017-02-15T13:26:54Z</time>
      </trkpt>
      <trkpt lat="45.78139" lon="5.31694">
        <ele>349</ele>
        <time>2017-02-15T13:27:09Z</time>
      </trkpt>
      <trkpt lat="45.78114" lon="5.31743">
        <ele>352</ele>
        <time>2017-02-15T13:27:39Z</time>
      </trkpt>
      <trkpt lat="45.78105" lon="5.31768">
        <ele>353</ele>
        <time>2017-02-15T13:27:52Z</time>
      </trkpt>
      <trkpt lat="45.78084" lon="5.31799">
        <ele>355</ele>
        <time>2017-02-15T13:28:12Z</time>
      </trkpt>
      <trkpt lat="45.78053" lon="5.31832">
        <ele>357</ele>
        <time>2017-02-15T13:28:39Z</time>
      </trkpt>
      <trkpt lat="45.78025" lon="5.31855">
        <ele>359</ele>
        <time>2017-02-15T13:28:56Z</time>
      </trkpt>
      <trkpt lat="45.78016" lon="5.31873">
        <ele>359</ele>
        <time>2017-02-15T13:29:05Z</time>
      </trkpt>
      <trkpt lat="45.77997" lon="5.31891">
        <ele>359</ele>
        <time>2017-02-15T13:29:18Z</time>
      </trkpt>
      <trkpt lat="45.77964" lon="5.31939">
        <ele>362</ele>
        <time>2017-02-15T13:29:50Z</time>
      </trkpt>
      <trkpt lat="45.77928" lon="5.3199">
        <ele>365</ele>
        <time>2017-02-15T13:30:20Z</time>
      </trkpt>
      <trkpt lat="45.77892" lon="5.32044">
        <ele>366</ele>
        <time>2017-02-15T13:30:50Z</time>
      </trkpt>
      <trkpt lat="45.7788" lon="5.3206">
        <ele>366</ele>
        <time>2017-02-15T13:31:00Z</time>
      </trkpt>
      <trkpt lat="45.7786" lon="5.32073">
        <ele>367</ele>
        <time>2017-02-15T13:31:14Z</time>
      </trkpt>
      <trkpt lat="45.77826" lon="5.32101">
        <ele>368</ele>
        <time>2017-02-15T13:31:41Z</time>
      </trkpt>
      <trkpt lat="45.77799" lon="5.32112">
        <ele>367</ele>
        <time>2017-02-15T13:32:01Z</time>
      </trkpt>
      <trkpt lat="45.77746" lon="5.3213">
        <ele>366</ele>
        <time>2017-02-15T13:32:32Z</time>
      </trkpt>
      <trkpt lat="45.77719" lon="5.32147">
        <ele>366</ele>
        <time>2017-02-15T13:32:49Z</time>
      </trkpt>
      <trkpt lat="45.77669" lon="5.32186">
        <ele>366</ele>
        <time>2017-02-15T13:33:21Z</time>
      </trkpt>
      <trkpt lat="45.77631" lon="5.32234">
        <ele>363</ele>
        <time>2017-02-15T13:33:50Z</time>
      </trkpt>
      <trkpt lat="45.77593" lon="5.32293">
        <ele>360</ele>
        <time>2017-02-15T13:34:20Z</time>
      </trkpt>
      <trkpt lat="45.77566" lon="5.32333">
        <ele>359</ele>
        <time>2017-02-15T13:34:42Z</time>
      </trkpt>
      <trkpt lat="45.77542" lon="5.32362">
        <ele>357</ele>
        <time>2017-02-15T13:35:01Z</time>
      </trkpt>
      <trkpt lat="45.77528" lon="5.32384">
        <ele>356</ele>
        <time>2017-02-15T13:35:14Z</time>
      </trkpt>
      <trkpt lat="45.77514" lon="5.32415">
        <ele>355</ele>
        <time>2017-02-15T13:35:29Z</time>
      </trkpt>
      <trkpt lat="45.775" lon="5.32438">
        <ele>354</ele>
        <time>2017-02-15T13:35:40Z</time>
      </trkpt>
      <trkpt lat="45.7749" lon="5.32445">
        <ele>354</ele>
        <time>2017-02-15T13:35:47Z</time>
      </trkpt>
      <trkpt lat="45.77453" lon="5.32454">
        <ele>352</ele>
        <time>2017-02-15T13:36:10Z</time>
      </trkpt>
      <trkpt lat="45.77439" lon="5.32464">
        <ele>351</ele>
        <time>2017-02-15T13:36:19Z</time>
      </trkpt>
      <trkpt lat="45.77437" lon="5.32471">
        <ele>352</ele>
        <time>2017-02-15T13:36:22Z</time>
      </trkpt>
      <trkpt lat="45.77437" lon="5.32488">
        <ele>352</ele>
        <time>2017-02-15T13:36:29Z</time>
      </trkpt>
      <trkpt lat="45.77435" lon="5.32537">
        <ele>351</ele>
        <time>2017-02-15T13:36:51Z</time>
      </trkpt>
      <trkpt lat="45.77424" lon="5.3256">
        <ele>351</ele>
        <time>2017-02-15T13:37:03Z</time>
      </trkpt>
      <trkpt lat="45.7742" lon="5.32564">
        <ele>352</ele>
        <time>2017-02-15T13:37:06Z</time>
      </trkpt>
      <trkpt lat="45.7741" lon="5.32566">
        <ele>351</ele>
        <time>2017-02-15T13:37:15Z</time>
      </trkpt>
      <trkpt lat="45.77395" lon="5.32568">
        <ele>350</ele>
        <time>2017-02-15T13:37:24Z</time>
      </trkpt>
      <trkpt lat="45.7739" lon="5.32575">
        <ele>349</ele>
        <time>2017-02-15T13:37:28Z</time>
      </trkpt>
      <trkpt lat="45.77383" lon="5.3259">
        <ele>349</ele>
        <time>2017-02-15T13:37:35Z</time>
      </trkpt>
      <trkpt lat="45.77378" lon="5.32594">
        <ele>349</ele>
        <time>2017-02-15T13:37:38Z</time>
      </trkpt>
      <trkpt lat="45.77368" lon="5.32593">
        <ele>349</ele>
        <time>2017-02-15T13:37:46Z</time>
      </trkpt>
      <trkpt lat="45.77342" lon="5.32592">
        <ele>348</ele>
        <time>2017-02-15T13:38:05Z</time>
      </trkpt>
      <trkpt lat="45.77327" lon="5.32608">
        <ele>347</ele>
        <time>2017-02-15T13:38:17Z</time>
      </trkpt>
      <trkpt lat="45.77326" lon="5.32632">
        <ele>346</ele>
        <time>2017-02-15T13:38:27Z</time>
      </trkpt>
      <trkpt lat="45.77327" lon="5.32664">
        <ele>345</ele>
        <time>2017-02-15T13:38:39Z</time>
      </trkpt>
      <trkpt lat="45.77318" lon="5.32705">
        <ele>345</ele>
        <time>2017-02-15T13:38:59Z</time>
      </trkpt>
      <trkpt lat="45.77307" lon="5.32742">
        <ele>345</ele>
        <time>2017-02-15T13:39:18Z</time>
      </trkpt>
      <trkpt lat="45.77284" lon="5.32807">
        <ele>347</ele>
        <time>2017-02-15T13:39:48Z</time>
      </trkpt>
      <trkpt lat="45.77272" lon="5.32833">
        <ele>347</ele>
        <time>2017-02-15T13:40:02Z</time>
      </trkpt>
      <trkpt lat="45.77254" lon="5.32872">
        <ele>346</ele>
        <time>2017-02-15T13:40:21Z</time>
      </trkpt>
      <trkpt lat="45.77246" lon="5.32899">
        <ele>347</ele>
        <time>2017-02-15T13:40:33Z</time>
      </trkpt>
      <trkpt lat="45.77246" lon="5.32909">
        <ele>347</ele>
        <time>2017-02-15T13:40:36Z</time>
      </trkpt>
      <trkpt lat="45.77253" lon="5.32917">
        <ele>347</ele>
        <time>2017-02-15T13:40:41Z</time>
      </trkpt>
      <trkpt lat="45.77269" lon="5.32923">
        <ele>346</ele>
        <time>2017-02-15T13:40:50Z</time>
      </trkpt>
      <trkpt lat="45.77291" lon="5.3293">
        <ele>346</ele>
        <time>2017-02-15T13:41:04Z</time>
      </trkpt>
      <trkpt lat="45.7729" lon="5.32939">
        <ele>346</ele>
        <time>2017-02-15T13:41:11Z</time>
      </trkpt>
      <trkpt lat="45.77271" lon="5.33">
        <ele>348</ele>
        <time>2017-02-15T13:41:42Z</time>
      </trkpt>
      <trkpt lat="45.7726" lon="5.33039">
        <ele>349</ele>
        <time>2017-02-15T13:41:58Z</time>
      </trkpt>
      <trkpt lat="45.77254" lon="5.33075">
        <ele>348</ele>
        <time>2017-02-15T13:42:15Z</time>
      </trkpt>
      <trkpt lat="45.77253" lon="5.33102">
        <ele>348</ele>
        <time>2017-02-15T13:42:27Z</time>
      </trkpt>
      <trkpt lat="45.7726" lon="5.33125">
        <ele>348</ele>
        <time>2017-02-15T13:42:34Z</time>
      </trkpt>
      <trkpt lat="45.7727" lon="5.33147">
        <ele>347</ele>
        <time>2017-02-15T13:42:38Z</time>
      </trkpt>
      <trkpt lat="45.77336" lon="5.3331">
        <ele>346</ele>
        <time>2017-02-15T13:43:08Z</time>
      </trkpt>
      <trkpt lat="45.77361" lon="5.33378">
        <ele>346</ele>
        <time>2017-02-15T13:43:21Z</time>
      </trkpt>
      <trkpt lat="45.77386" lon="5.33446">
        <ele>341</ele>
        <time>2017-02-15T13:43:33Z</time>
      </trkpt>
      <trkpt lat="45.77441" lon="5.33602">
        <ele>344</ele>
        <time>2017-02-15T13:44:05Z</time>
      </trkpt>
      <trkpt lat="45.77439" lon="5.33627">
        <ele>344</ele>
        <time>2017-02-15T13:44:17Z</time>
      </trkpt>
      <trkpt lat="45.77431" lon="5.33683">
        <ele>345</ele>
        <time>2017-02-15T13:44:37Z</time>
      </trkpt>
      <trkpt lat="45.77425" lon="5.33696">
        <ele>344</ele>
        <time>2017-02-15T13:44:43Z</time>
      </trkpt>
      <trkpt lat="45.77406" lon="5.33729">
        <ele>344</ele>
        <time>2017-02-15T13:45:02Z</time>
      </trkpt>
      <trkpt lat="45.77388" lon="5.3381">
        <ele>344</ele>
        <time>2017-02-15T13:45:35Z</time>
      </trkpt>
      <trkpt lat="45.77369" lon="5.33877">
        <ele>342</ele>
        <time>2017-02-15T13:46:07Z</time>
      </trkpt>
      <trkpt lat="45.77362" lon="5.33902">
        <ele>341</ele>
        <time>2017-02-15T13:46:17Z</time>
      </trkpt>
      <trkpt lat="45.77362" lon="5.33926">
        <ele>340</ele>
        <time>2017-02-15T13:46:29Z</time>
      </trkpt>
      <trkpt lat="45.77365" lon="5.33978">
        <ele>338</ele>
        <time>2017-02-15T13:46:50Z</time>
      </trkpt>
      <trkpt lat="45.77357" lon="5.33993">
        <ele>339</ele>
        <time>2017-02-15T13:47:00Z</time>
      </trkpt>
    </trkseg>
  </trk>
</gpx>